tititudorancea.com
Station Historical Data
Daily Summary for May 1, 2018 Units:  Metric    English   Both
« Previous Day
Next Day »
Daily Weekly Monthly Yearly Custom
  High: Low: Average:
Temperature: -17.8 °C 4 °C 13.1 °C
Dew Point: -17.8 °C 0.2 °C 2.8 °C
Humidity: Humidity % 32 % 53 %
Wind Speed: 0 km/h 0 km/h 5 km/h
Wind Gust: 0 km/h - -
Wind:- - ESE
Pressure: 0 hPa 1017.8 hPa -
Precipitation: 0 mm    
Historical Graphs
 
 
Ararat weather Find more about Weather in Ararat, AU


 



 


Tabular Data for May 1, 2018
Time Temperature Dew Point Pressure Wind Wind Speed Wind Gust Humidity Rainfall Rate (Hourly)
-17.8 °C -17.8 °C 0 hPa Calm     Humidity % 0 mm
00:00 5.7 °C 0.4 °C 1025.3 hPa Calm     69 % 0 mm
00:01 5.7 °C 0.4 °C 1025.3 hPa Calm     69 % 0 mm
00:06 5.5 °C 0.4 °C 1025.6 hPa Calm     70 % 0 mm
00:11 5.4 °C 0.3 °C 1025.3 hPa Calm     70 % 0 mm
00:16 5.3 °C 0.3 °C 1025.3 hPa Calm     70 % 0 mm
00:21 5.2 °C 0.3 °C 1025.3 hPa Calm     71 % 0 mm
00:26 5.1 °C 0.3 °C 1025.3 hPa SSE 0.8 km/h 1.9 km/h 71 % 0 mm
00:31 5.1 °C 0.4 °C 1025.3 hPa Calm   1.9 km/h 72 % 0 mm
00:36 5 °C 0.4 °C 1025.3 hPa Calm     72 % 0 mm
00:41 4.9 °C 0.3 °C 1025.3 hPa Calm     72 % 0 mm
00:46 4.8 °C 0.2 °C 1025.3 hPa Calm     72 % 0 mm
00:51 4.8 °C 0.4 °C 1024.9 hPa Calm     73 % 0 mm
00:56 4.8 °C 0.4 °C 1024.9 hPa Calm     73 % 0 mm
01:01 4.8 °C 0.3 °C 1024.9 hPa Calm     73 % 0 mm
01:06 4.8 °C 0.6 °C 1024.9 hPa Calm     74 % 0 mm
01:11 4.8 °C 0.6 °C 1024.9 hPa Calm     74 % 0 mm
01:16 4.8 °C 0.6 °C 1024.9 hPa Calm     74 % 0 mm
01:21 4.8 °C 0.6 °C 1024.9 hPa Calm     74 % 0 mm
01:26 4.8 °C 0.6 °C 1024.9 hPa Calm     74 % 0 mm
01:31 4.8 °C 0.7 °C 1024.9 hPa Calm     75 % 0 mm
01:36 4.8 °C 0.6 °C 1024.9 hPa Calm     74 % 0 mm
01:41 4.7 °C 0.5 °C 1024.9 hPa Calm     74 % 0 mm
01:46 4.7 °C 0.7 °C 1024.9 hPa Calm     75 % 0 mm
01:51 4.8 °C 0.7 °C 1024.9 hPa Calm     75 % 0 mm
01:56 4.7 °C 0.7 °C 1024.9 hPa Calm     75 % 0 mm
02:01 4.7 °C 0.6 °C 1024.9 hPa Calm     75 % 0 mm
02:06 4.7 °C 0.7 °C 1024.9 hPa Calm     75 % 0 mm
02:11 4.7 °C 0.7 °C 1024.9 hPa Calm     75 % 0 mm
02:16 4.6 °C 0.6 °C 1024.9 hPa Calm     75 % 0 mm
02:21 4.7 °C 0.6 °C 1024.9 hPa Calm     75 % 0 mm
02:26 4.7 °C 0.8 °C 1024.9 hPa Calm     76 % 0 mm
02:31 4.6 °C 0.6 °C 1024.9 hPa Calm     75 % 0 mm
02:36 4.6 °C 0.7 °C 1024.9 hPa Calm     76 % 0 mm
02:41 4.5 °C 0.6 °C 1024.9 hPa Calm     76 % 0 mm
02:46 4.5 °C 0.6 °C 1024.9 hPa Calm     76 % 0 mm
02:51 4.6 °C 0.9 °C 1024.9 hPa Calm     77 % 0 mm
02:56 4.6 °C 0.9 °C 1024.9 hPa Calm     77 % 0 mm
03:01 4.7 °C 1.2 °C 1024.9 hPa Calm     78 % 0 mm
03:06 4.7 °C 1.1 °C 1024.6 hPa Calm     77 % 0 mm
03:11 4.8 °C 1.1 °C 1024.6 hPa Calm     77 % 0 mm
03:16 4.8 °C 1.1 °C 1024.6 hPa Calm     77 % 0 mm
03:21 4.8 °C 1.1 °C 1024.6 hPa Calm     77 % 0 mm
03:26 4.7 °C 1.1 °C 1024.6 hPa Calm     77 % 0 mm
03:31 4.7 °C 1 °C 1024.6 hPa Calm     77 % 0 mm
03:36 4.6 °C 0.9 °C 1024.6 hPa Calm     77 % 0 mm
03:41 4.4 °C 0.8 °C 1024.6 hPa Calm     77 % 0 mm
03:46 4.3 °C 0.8 °C 1024.6 hPa Calm     78 % 0 mm
03:51 4.3 °C 0.8 °C 1024.6 hPa Calm     78 % 0 mm
03:56 4.2 °C 0.9 °C 1024.6 hPa Calm     79 % 0 mm
04:01 4.1 °C 0.8 °C 1024.6 hPa Calm     79 % 0 mm
04:06 4.1 °C 0.7 °C 1024.6 hPa Calm     79 % 0 mm
04:11 4.1 °C 0.9 °C 1024.6 hPa Calm     80 % 0 mm
04:16 4 °C 0.8 °C 1024.6 hPa Calm     80 % 0 mm
04:21 4 °C 0.8 °C 1024.6 hPa Calm     80 % 0 mm
04:26 4.1 °C 1.2 °C 1024.3 hPa Calm     81 % 0 mm
04:31 4.2 °C 1.2 °C 1024.3 hPa Calm     81 % 0 mm
04:36 4.3 °C 1.3 °C 1024.3 hPa Calm     81 % 0 mm
04:41 4.4 °C 1.4 °C 1024.3 hPa Calm     81 % 0 mm
04:46 4.4 °C 1.4 °C 1024.6 hPa Calm     81 % 0 mm
04:51 4.6 °C 1.4 °C 1024.6 hPa Calm     80 % 0 mm
04:56 4.7 °C 1.6 °C 1024.6 hPa Calm     80 % 0 mm
05:01 4.9 °C 1.7 °C 1024.6 hPa Calm     80 % 0 mm
05:06 5.1 °C 1.9 °C 1024.6 hPa Calm     80 % 0 mm
05:11 5.3 °C 1.9 °C 1024.6 hPa Calm     79 % 0 mm
05:16 5.5 °C 2.2 °C 1024.6 hPa Calm     79 % 0 mm
05:21 5.6 °C 2 °C 1024.6 hPa SSE 1.6 km/h 3.7 km/h 78 % 0 mm
05:26 5.6 °C 2 °C 1024.6 hPa Calm     78 % 0 mm
05:31 5.5 °C 1.8 °C 1024.6 hPa Calm     77 % 0 mm
05:36 5.5 °C 1.8 °C 1024.6 hPa Calm     77 % 0 mm
05:41 5.5 °C 1.8 °C 1024.6 hPa Calm     77 % 0 mm
05:46 5.4 °C 1.7 °C 1024.6 hPa SSE 2.4 km/h 3.7 km/h 77 % 0 mm
05:51 5.4 °C 1.7 °C 1024.6 hPa SSE 1.6 km/h 3.7 km/h 77 % 0 mm
05:56 5.3 °C 1.6 °C 1024.6 hPa Calm     77 % 0 mm
06:01 5.4 °C 1.7 °C 1024.6 hPa Calm     77 % 0 mm
06:06 5.5 °C 1.8 °C 1024.3 hPa Calm     77 % 0 mm
06:11 5.7 °C 1.8 °C 1024.3 hPa Calm     76 % 0 mm
06:16 5.7 °C 1.6 °C 1024.3 hPa Calm     75 % 0 mm
06:21 5.7 °C 1.6 °C 1024.3 hPa Calm     75 % 0 mm
06:26 5.7 °C 1.8 °C 1024.3 hPa Calm     76 % 0 mm
06:31 5.8 °C 1.7 °C 1024.3 hPa Calm     75 % 0 mm
06:36 5.7 °C 1.6 °C 1024.3 hPa Calm     75 % 0 mm
06:41 5.6 °C 1.7 °C 1024.3 hPa Calm     76 % 0 mm
06:46 5.5 °C 1.6 °C 1024.6 hPa Calm     76 % 0 mm
06:51 5.6 °C 1.8 °C 1024.3 hPa Calm     77 % 0 mm
06:56 5.4 °C 1.7 °C 1024.6 hPa Calm     77 % 0 mm
07:01 5.4 °C 1.7 °C 1024.6 hPa Calm     77 % 0 mm
07:06 5.3 °C 1.6 °C 1024.6 hPa Calm     77 % 0 mm
07:11 5.2 °C 1.7 °C 1024.6 hPa Calm     78 % 0 mm
07:16 5.1 °C 1.6 °C 1024.6 hPa Calm     78 % 0 mm
07:21 5.1 °C 1.6 °C 1024.6 hPa Calm     78 % 0 mm
07:26 5 °C 1.7 °C 1024.6 hPa Calm     79 % 0 mm
07:31 4.9 °C 1.6 °C 1024.6 hPa Calm     79 % 0 mm
07:36 4.9 °C 1.8 °C 1024.6 hPa Calm     80 % 0 mm
07:41 5 °C 1.8 °C 1024.6 hPa Calm     80 % 0 mm
07:46 5.2 °C 2 °C 1024.6 hPa Calm     80 % 0 mm
07:51 5.4 °C 2.2 °C 1024.6 hPa Calm     80 % 0 mm
07:56 5.7 °C 2.3 °C 1024.6 hPa Calm     79 % 0 mm
08:01 6.1 °C 2.9 °C 1024.6 hPa Calm     80 % 0 mm
08:06 6.8 °C 3.4 °C 1024.6 hPa Calm     79 % 0 mm
08:11 7.4 °C 3.8 °C 1024.6 hPa Calm   1.9 km/h 78 % 0 mm
08:16 8.3 °C 4.3 °C 1024.9 hPa Calm     76 % 0 mm
08:21 9 °C 4.2 °C 1024.9 hPa SSE 0.6 km/h 1.9 km/h 72 % 0 mm
08:26 9.8 °C 4.2 °C 1024.9 hPa SSE 0.3 km/h 1.9 km/h 68 % 0 mm
08:31 10.5 °C 3.9 °C 1024.9 hPa SSE 4.2 km/h 6.4 km/h 64 % 0 mm
08:37 11.2 °C 3.3 °C 1024.9 hPa SSE 4.2 km/h 7.4 km/h 58 % 0 mm
08:42 11.9 °C 3.2 °C 1024.9 hPa SSE 5.6 km/h 7.4 km/h 55 % 0 mm
08:47 12.4 °C 3.1 °C 1024.9 hPa SSE 3.4 km/h 9.3 km/h 53 % 0 mm
08:52 12.9 °C 3.3 °C 1024.9 hPa SSE 7.4 km/h 9.7 km/h 52 % 0 mm
08:57 13.3 °C 3.1 °C 1024.9 hPa SSE 5.3 km/h 7.4 km/h 50 % 0 mm
09:02 13.7 °C 3.5 °C 1024.9 hPa SSE 4.8 km/h 9.3 km/h 50 % 0 mm
09:07 14.2 °C 3.6 °C 1024.9 hPa SSE 4.7 km/h 7.4 km/h 49 % 0 mm
09:12 14.6 °C 3.4 °C 1024.9 hPa SSE 7.2 km/h 8 km/h 47 % 0 mm
09:17 15.3 °C 3.4 °C 1024.9 hPa NE 7.6 km/h 9.3 km/h 45 % 0 mm
09:22 15.8 °C 3.6 °C 1024.9 hPa NE 5.5 km/h 9.3 km/h 44 % 0 mm
09:27 16.2 °C 3.6 °C 1024.6 hPa North 7.7 km/h 9.3 km/h 43 % 0 mm
09:32 16.4 °C 3.1 °C 1024.6 hPa North 12.1 km/h 20.4 km/h 41 % 0 mm
09:37 16.4 °C 3.1 °C 1024.6 hPa North 10.3 km/h 13 km/h 41 % 0 mm
09:42 16.3 °C 3.1 °C 1024.6 hPa NNW 9.7 km/h 13 km/h 41 % 0 mm
09:47 16.3 °C 3.4 °C 1024.6 hPa North 5.3 km/h 11.1 km/h 42 % 0 mm
09:52 16.4 °C 3.4 °C 1024.6 hPa NNW 6.1 km/h 11.1 km/h 42 % 0 mm
09:57 16.7 °C 3.7 °C 1024.6 hPa North 9.8 km/h 11.1 km/h 42 % 0 mm
10:02 16.6 °C 3.3 °C 1024.6 hPa North 8.7 km/h 13 km/h 41 % 0 mm
10:07 16.7 °C 3.7 °C 1024.6 hPa NNW 10.5 km/h 14.8 km/h 42 % 0 mm
10:12 16.8 °C 3.8 °C 1024.6 hPa NW 11.7 km/h 16.7 km/h 42 % 0 mm
10:17 16.8 °C 3.8 °C 1024.3 hPa NNW 13 km/h 18.5 km/h 42 % 0 mm
10:22 17 °C 3.7 °C 1024.3 hPa NNE 10.6 km/h 24.1 km/h 41 % 0 mm
10:27 17.2 °C 4.1 °C 1024.3 hPa North 5.1 km/h 13 km/h 42 % 0 mm
10:32 17.3 °C 3.9 °C 1024.3 hPa NNE 16.6 km/h 24.1 km/h 41 % 0 mm
10:37 17.4 °C 4.1 °C 1024.3 hPa NNE 10.3 km/h 22.2 km/h 41 % 0 mm
10:42 17.6 °C 4.2 °C 1024.3 hPa NNE 14.6 km/h 16.7 km/h 41 % 0 mm
10:47 17.6 °C 4.6 °C 1024.3 hPa North 14.3 km/h 24.1 km/h 42 % 0 mm
10:52 17.8 °C 4.4 °C 1024.3 hPa North 8.9 km/h 22.2 km/h 41 % 0 mm
10:57 17.8 °C 4.7 °C 1024.3 hPa North 12.1 km/h 20.4 km/h 42 % 0 mm
11:02 18.1 °C 4.6 °C 1023.9 hPa North 14.5 km/h 27.8 km/h 41 % 0 mm
11:07 18.3 °C 4.8 °C 1023.9 hPa North 4.8 km/h 13 km/h 41 % 0 mm
11:12 18.8 °C 4.9 °C 1023.9 hPa NNW 11.9 km/h 18.5 km/h 40 % 0 mm
11:17 18.8 °C 4.9 °C 1023.9 hPa North 15.6 km/h 20.4 km/h 40 % 0 mm
11:22 18.7 °C 4.8 °C 1023.9 hPa NNE 19 km/h 22.2 km/h 40 % 0 mm
11:27 18.6 °C 4.7 °C 1023.9 hPa North 13 km/h 18.5 km/h 40 % 0 mm
11:32 18.7 °C 4.8 °C 1023.9 hPa North 9.8 km/h 14.8 km/h 40 % 0 mm
11:37 18.8 °C 4.9 °C 1023.6 hPa North 14.5 km/h 22.2 km/h 40 % 0 mm
11:42 18.8 °C 4.9 °C 1023.6 hPa North 7.7 km/h 16.7 km/h 40 % 0 mm
11:47 19.1 °C 5.2 °C 1023.6 hPa North 13.7 km/h 17.7 km/h 40 % 0 mm
11:52 19.3 °C 5.4 °C 1023.6 hPa North 9.8 km/h 18.5 km/h 40 % 0 mm
11:57 19.6 °C 5.2 °C 1023.2 hPa NE 13 km/h 18.5 km/h 39 % 0 mm
12:02 19.8 °C 5.1 °C 1023.2 hPa North 11.1 km/h 20.4 km/h 38 % 0 mm
12:07 19.8 °C 5.1 °C 1023.2 hPa NNW 10.8 km/h 18.5 km/h 38 % 0 mm
12:12 19.7 °C 5.3 °C 1022.9 hPa North 10.9 km/h 20.4 km/h 39 % 0 mm
12:17 19.7 °C 5 °C 1022.9 hPa North 18.2 km/h 25.9 km/h 38 % 0 mm
12:22 19.7 °C 5 °C 1022.9 hPa North 10.6 km/h 14.8 km/h 38 % 0 mm
12:27 19.8 °C 5.1 °C 1022.6 hPa North 16.9 km/h 22.5 km/h 38 % 0 mm
12:32 19.7 °C 5 °C 1022.6 hPa NNW 16.3 km/h 27.8 km/h 38 % 0 mm
12:37 19.9 °C 5.2 °C 1022.6 hPa North 13.7 km/h 22.2 km/h 38 % 0 mm
12:42 20 °C 4.8 °C 1022.6 hPa NNE 13.5 km/h 18.5 km/h 37 % 0 mm
12:47 20.2 °C 4.7 °C 1022.2 hPa North 12.1 km/h 20.4 km/h 36 % 0 mm
12:52 20.2 °C 5 °C 1022.2 hPa NNE 14.5 km/h 18.5 km/h 37 % 0 mm
12:57 20.4 °C 4.8 °C 1021.9 hPa North 16.3 km/h 25.9 km/h 36 % 0 mm
13:02 20.4 °C 4.8 °C 1021.9 hPa NNE 11.1 km/h 20.9 km/h 36 % 0 mm
13:07 20.3 °C 4.3 °C 1021.9 hPa NNW 11.7 km/h 18.5 km/h 35 % 0 mm
13:12 20.6 °C 4.6 °C 1021.6 hPa NW 13.4 km/h 18.5 km/h 35 % 0 mm
13:17 20.6 °C 4.1 °C 1021.6 hPa North 19.5 km/h 29.6 km/h 34 % 0 mm
13:22 20.5 °C 4.5 °C 1021.6 hPa North 10 km/h 20.4 km/h 35 % 0 mm
13:27 20.8 °C 4.4 °C 1021.6 hPa North 14 km/h 24.1 km/h 34 % 0 mm
13:32 20.5 °C 4.1 °C 1021.2 hPa NNE 15.9 km/h 20.4 km/h 34 % 0 mm
13:37 20.7 °C 4.2 °C 1021.2 hPa North 12.2 km/h 18.5 km/h 34 % 0 mm
13:42 20.8 °C 4.4 °C 1021.2 hPa NNE 11.3 km/h 18.5 km/h 34 % 0 mm
13:47 20.9 °C 4.4 °C 1021.2 hPa North 9.2 km/h 16.1 km/h 34 % 0 mm
13:52 20.9 °C 4.4 °C 1020.9 hPa NNE 13.2 km/h 22.5 km/h 34 % 0 mm
13:57 20.7 °C 3.8 °C 1020.9 hPa NNE 12.2 km/h 18.5 km/h 33 % 0 mm
14:02 20.6 °C 4.1 °C 1020.9 hPa NNE 16.1 km/h 22.2 km/h 34 % 0 mm
14:07 20.6 °C 4.1 °C 1020.5 hPa NNE 10.5 km/h 20.4 km/h 34 % 0 mm
14:12 20.7 °C 4.3 °C 1020.5 hPa North 9 km/h 14.8 km/h 34 % 0 mm
14:17 20.9 °C 4 °C 1020.5 hPa North 10.8 km/h 18.5 km/h 33 % 0 mm
14:22 20.8 °C 3.9 °C 1020.9 hPa NNE 14.3 km/h 22.2 km/h 33 % 0 mm
14:27 20.8 °C 4.3 °C 1020.5 hPa North 10.3 km/h 14.8 km/h 34 % 0 mm
14:32 20.9 °C 4.4 °C 1020.5 hPa North 9.5 km/h 18.5 km/h 34 % 0 mm
14:37 21.1 °C 4.6 °C 1020.5 hPa NNE 9.8 km/h 16.7 km/h 34 % 0 mm
14:42 20.9 °C 4.1 °C 1020.5 hPa North 9.8 km/h 18.5 km/h 33 % 0 mm
14:47 21.1 °C 3.7 °C 1020.5 hPa NNE 21.7 km/h 27.8 km/h 32 % 0 mm
14:52 21.1 °C 3.7 °C 1020.5 hPa North 13.7 km/h 20.4 km/h 32 % 0 mm
14:57 21.1 °C 3.8 °C 1020.5 hPa NNE 14.5 km/h 18.5 km/h 32 % 0 mm
15:02 21.3 °C 3.9 °C 1020.5 hPa NNW 13 km/h 16.7 km/h 32 % 0 mm
15:07 21.3 °C 3.9 °C 1020.5 hPa NNE 11.6 km/h 18.5 km/h 32 % 0 mm
15:12 21.1 °C 3.7 °C 1020.2 hPa North 6.6 km/h 18.5 km/h 32 % 0 mm
15:17 21 °C 3.7 °C 1020.5 hPa NNE 13 km/h 18.5 km/h 32 % 0 mm
15:22 20.8 °C 3.5 °C 1020.2 hPa NNE 6.8 km/h 11.1 km/h 32 % 0 mm
15:24 20.8 °C 3.4 °C 1020.2 hPa North 11.4 km/h 18.5 km/h 32 % 0 mm
15:29 20.8 °C 3.9 °C 1020.2 hPa North 10.6 km/h 14.8 km/h 33 % 0 mm
15:34 20.8 °C 3.4 °C 1020.2 hPa NNE 14.8 km/h 18.5 km/h 32 % 0 mm
15:39 20.6 °C 3.8 °C 1020.2 hPa North 10 km/h 13 km/h 33 % 0 mm
15:44 20.4 °C 3.6 °C 1020.2 hPa North 9.5 km/h 18.5 km/h 33 % 0 mm
15:49 20.4 °C 3.6 °C 1020.2 hPa North 9.7 km/h 13 km/h 33 % 0 mm
15:54 20.5 °C 3.7 °C 1020.2 hPa NNE 12.4 km/h 18.5 km/h 33 % 0 mm
15:59 20.6 °C 3.3 °C 1019.9 hPa North 14.3 km/h 20.4 km/h 32 % 0 mm
16:04 20.5 °C 3.7 °C 1019.9 hPa NNE 12.7 km/h 18.5 km/h 33 % 0 mm
16:09 20.4 °C 3.1 °C 1019.9 hPa NNW 10.5 km/h 18.5 km/h 32 % 0 mm
16:14 20.2 °C 3.4 °C 1019.9 hPa North 13 km/h 18.5 km/h 33 % 0 mm
16:19 20.1 °C 3.3 °C 1019.5 hPa North 11.6 km/h 18.5 km/h 33 % 0 mm
16:24 20 °C 3.2 °C 1019.5 hPa North 10 km/h 18.5 km/h 33 % 0 mm
16:29 19.9 °C 3.2 °C 1019.5 hPa NNE 8.4 km/h 20.4 km/h 33 % 0 mm
16:34 19.9 °C 2.7 °C 1019.5 hPa North 10.3 km/h 14.8 km/h 32 % 0 mm
16:39 19.8 °C 3.1 °C 1019.5 hPa North 7.2 km/h 13 km/h 33 % 0 mm
16:44 19.7 °C 3 °C 1019.5 hPa NNE 10 km/h 14.8 km/h 33 % 0 mm
16:49 19.6 °C 2.9 °C 1019.5 hPa North 11.3 km/h 17.7 km/h 33 % 0 mm
16:54 19.6 °C 2.8 °C 1019.5 hPa NNE 7.6 km/h 14.8 km/h 33 % 0 mm
16:59 19.5 °C 3.2 °C 1019.5 hPa NNE 5.8 km/h 7.4 km/h 34 % 0 mm
17:04 19.4 °C 3.1 °C 1019.5 hPa NNE 11.7 km/h 14.8 km/h 34 % 0 mm
17:09 19.3 °C 3 °C 1019.5 hPa NNE 7.1 km/h 9.3 km/h 34 % 0 mm
17:14 19.2 °C 2.9 °C 1019.5 hPa NNE 10.8 km/h 16.7 km/h 34 % 0 mm
17:19 19.1 °C 3.3 °C 1019.5 hPa NNE 7.4 km/h 9.3 km/h 35 % 0 mm
17:24 19 °C 3.2 °C 1019.5 hPa NNE 5.5 km/h 7.4 km/h 35 % 0 mm
17:29 18.8 °C 3.1 °C 1019.5 hPa NNE 6.6 km/h 9.3 km/h 35 % 0 mm
17:34 18.7 °C 3.3 °C 1019.2 hPa NNE 1.9 km/h 5.6 km/h 36 % 0 mm
17:39 18.6 °C 3.2 °C 1019.2 hPa NNE 1.1 km/h 3.7 km/h 36 % 0 mm
17:44 18.4 °C 3.4 °C 1019.5 hPa NNE 3.7 km/h 7.4 km/h 37 % 0 mm
17:49 18.2 °C 3.2 °C 1019.2 hPa NNE 2.4 km/h 5.6 km/h 37 % 0 mm
17:54 18 °C 3.4 °C 1019.2 hPa NNE 3.4 km/h 5.6 km/h 38 % 0 mm
17:59 17.9 °C 3.3 °C 1019.2 hPa NNE 4.5 km/h 7.4 km/h 38 % 0 mm
18:04 17.8 °C 3.3 °C 1019.2 hPa NNE 2.3 km/h 4.8 km/h 38 % 0 mm
18:09 17.7 °C 3.6 °C 1019.2 hPa NNE 1.8 km/h 3.7 km/h 39 % 0 mm
18:14 17.4 °C 3.3 °C 1019.5 hPa NNE 4 km/h 5.6 km/h 39 % 0 mm
18:19 17.3 °C 3.6 °C 1019.2 hPa NNE 3.2 km/h 5.6 km/h 40 % 0 mm
18:24 17.2 °C 3.5 °C 1019.5 hPa NNE 2.4 km/h 5.6 km/h 40 % 0 mm
18:29 17.1 °C 3.4 °C 1019.5 hPa NNE 4 km/h 7.4 km/h 40 % 0 mm
18:34 17.1 °C 3.7 °C 1019.2 hPa NNE 2.6 km/h 5.6 km/h 41 % 0 mm
18:39 17.1 °C 3.3 °C 1019.2 hPa NNE 3.4 km/h 5.6 km/h 40 % 0 mm
18:44 17 °C 3.7 °C 1019.5 hPa NNE 6.4 km/h 7.4 km/h 41 % 0 mm
18:49 17 °C 3.7 °C 1019.5 hPa NNE 4.8 km/h 5.6 km/h 41 % 0 mm
18:54 16.9 °C 3.6 °C 1019.2 hPa NNE 1.6 km/h 6.4 km/h 41 % 0 mm
18:59 16.8 °C 3.4 °C 1019.5 hPa NNE 1.4 km/h 5.6 km/h 41 % 0 mm
19:04 16.7 °C 3.7 °C 1019.5 hPa NNE 3.5 km/h 5.6 km/h 42 % 0 mm
19:09 16.6 °C 3.6 °C 1019.5 hPa NNE 3.2 km/h 5.6 km/h 42 % 0 mm
19:14 16.4 °C 3.8 °C 1019.5 hPa NNE 4 km/h 5.6 km/h 43 % 0 mm
19:19 16.3 °C 3.7 °C 1019.5 hPa NNE 5.6 km/h 7.4 km/h 43 % 0 mm
19:24 16.2 °C 3.6 °C 1019.5 hPa NNE 5.3 km/h 6.4 km/h 43 % 0 mm
19:29 16.2 °C 3.6 °C 1019.5 hPa NNE 5.6 km/h 8 km/h 43 % 0 mm
19:34 16.2 °C 3.6 °C 1019.5 hPa NNE 6.1 km/h 9.3 km/h 43 % 0 mm
19:39 16.2 °C 3.6 °C 1019.5 hPa NNE 4.8 km/h 7.4 km/h 43 % 0 mm
19:44 16.2 °C 3.6 °C 1019.5 hPa NNE 6.4 km/h 7.4 km/h 43 % 0 mm
19:49 16.1 °C 3.5 °C 1019.5 hPa NNE 4.8 km/h 7.4 km/h 43 % 0 mm
19:54 16.2 °C 3.6 °C 1019.5 hPa NNE 5.3 km/h 7.4 km/h 43 % 0 mm
19:59 16.3 °C 3.7 °C 1019.5 hPa NNE 7.9 km/h 11.1 km/h 43 % 0 mm
20:04 16.6 °C 3.6 °C 1019.5 hPa NNE 4.7 km/h 9.3 km/h 42 % 0 mm
20:09 16.7 °C 3.3 °C 1019.5 hPa NNE 5 km/h 9.3 km/h 41 % 0 mm
20:14 16.7 °C 3.4 °C 1019.5 hPa NNE 5.3 km/h 9.7 km/h 41 % 0 mm
20:20 16.7 °C 3.4 °C 1019.5 hPa NNE 5.8 km/h 12.9 km/h 41 % 0 mm
20:25 16.8 °C 3.4 °C 1019.5 hPa NNE 6.8 km/h 9.3 km/h 41 % 0 mm
20:30 16.8 °C 3.4 °C 1019.5 hPa NNE 8 km/h 9.3 km/h 41 % 0 mm
20:35 16.7 °C 3.4 °C 1019.5 hPa NNE 6 km/h 11.1 km/h 41 % 0 mm
20:40 16.6 °C 3.2 °C 1019.2 hPa NNE 4.7 km/h 7.4 km/h 41 % 0 mm
20:45 16.4 °C 3.5 °C 1019.2 hPa NNE 4 km/h 5.6 km/h 42 % 0 mm
20:50 16.3 °C 3.4 °C 1019.5 hPa NNE 3.5 km/h 5.6 km/h 42 % 0 mm
20:55 16.2 °C 3.3 °C 1019.5 hPa NNE 3.9 km/h 5.6 km/h 42 % 0 mm
21:00 16.2 °C 3.6 °C 1019.5 hPa NNE 0.5 km/h 5.6 km/h 43 % 0 mm
21:05 16 °C 3.4 °C 1019.5 hPa NNE 1.8 km/h 3.7 km/h 43 % 0 mm
21:10 15.9 °C 3.3 °C 1019.5 hPa NNE 2.1 km/h 5.6 km/h 43 % 0 mm
21:15 15.7 °C 3.5 °C 1019.5 hPa NNE 1.1 km/h 1.9 km/h 44 % 0 mm
21:20 15.6 °C 3.4 °C 1019.5 hPa NNE 2.3 km/h 5.6 km/h 44 % 0 mm
21:25 15.6 °C 3.3 °C 1019.5 hPa NNE 1.4 km/h 5.6 km/h 44 % 0 mm
21:30 15.5 °C 3.3 °C 1019.5 hPa NNE 3.1 km/h 5.6 km/h 44 % 0 mm
21:35 15.4 °C 3.2 °C 1019.2 hPa NNE 2.1 km/h 3.7 km/h 44 % 0 mm
21:40 15.4 °C 3.2 °C 1019.5 hPa NNE 3.1 km/h 5.6 km/h 44 % 0 mm
21:45 15.4 °C 3.2 °C 1019.5 hPa NNE 3.1 km/h 5.6 km/h 44 % 0 mm
21:50 15.3 °C 3.1 °C 1019.2 hPa NNE 3.7 km/h 6.4 km/h 44 % 0 mm
21:55 15.3 °C 3.1 °C 1019.2 hPa NNE 3.7 km/h 5.6 km/h 44 % 0 mm
22:00 15.3 °C 3.1 °C 1019.2 hPa NNE 1.8 km/h 3.7 km/h 44 % 0 mm
22:05 15.2 °C 3.3 °C 1019.2 hPa NNE 1 km/h 3.7 km/h 45 % 0 mm
22:10 15.1 °C 3.3 °C 1019.2 hPa NNE 0.6 km/h 3.7 km/h 45 % 0 mm
22:15 15.1 °C 3.2 °C 1019.2 hPa NNE 0.8 km/h 3.7 km/h 45 % 0 mm
22:20 14.9 °C 3.1 °C 1019.2 hPa NNE 0.8 km/h 3.7 km/h 45 % 0 mm
22:25 14.8 °C 3.3 °C 1019.2 hPa NNE 3.4 km/h 5.6 km/h 46 % 0 mm
22:30 14.8 °C 3.3 °C 1018.8 hPa NNE 3.1 km/h 5.6 km/h 46 % 0 mm
22:35 14.7 °C 3.2 °C 1018.8 hPa NNE 2.3 km/h 3.7 km/h 46 % 0 mm
22:40 14.7 °C 3.2 °C 1018.8 hPa NNE 2.3 km/h 3.7 km/h 46 % 0 mm
22:45 14.7 °C 3.2 °C 1018.8 hPa NNE 2.7 km/h 5.6 km/h 46 % 0 mm
22:50 14.7 °C 3.2 °C 1018.8 hPa NNE 1.1 km/h 3.7 km/h 46 % 0 mm
22:55 14.7 °C 3.2 °C 1018.8 hPa NNE 3.1 km/h 5.6 km/h 46 % 0 mm
23:00 14.7 °C 3.2 °C 1018.8 hPa NNE 3.5 km/h 5.6 km/h 46 % 0 mm
23:05 14.8 °C 3.3 °C 1018.8 hPa NNE 2.6 km/h 5.6 km/h 46 % 0 mm
23:10 14.8 °C 3.3 °C 1018.5 hPa NNE 2.3 km/h 3.7 km/h 46 % 0 mm
23:15 14.8 °C 3 °C 1018.5 hPa NNE 1.1 km/h 1.9 km/h 45 % 0 mm
23:21 14.9 °C 3.4 °C 1018.5 hPa NNE 1.9 km/h 3.7 km/h 46 % 0 mm
23:26 14.9 °C 3.1 °C 1018.5 hPa NNE 2.9 km/h 5.6 km/h 45 % 0 mm
23:31 14.9 °C 3.1 °C 1018.5 hPa NNE 3.2 km/h 5.6 km/h 45 % 0 mm
23:36 15 °C 3.2 °C 1018.2 hPa NNE 0.8 km/h 3.7 km/h 45 % 0 mm
23:41 15 °C 3.2 °C 1018.2 hPa NNE 3.4 km/h 5.6 km/h 45 % 0 mm
23:46 15.1 °C 3.3 °C 1018.2 hPa NNE 2.3 km/h 5.6 km/h 45 % 0 mm
23:51 15.3 °C 3.1 °C 1017.8 hPa NNE 2.6 km/h 8 km/h 44 % 0 mm
23:56 15.4 °C 3.2 °C 1017.8 hPa NNE 4.3 km/h 5.6 km/h 44 % 0 mm
Ararat Weather
Compliments of Weather Underground - 2.5 mb
Click here to send mail.


ABOUT

Live weather data from Ararat, Victoria, Australia, 3377
Data uploaded from Cumulus every 5 minutes to Weather Underground.
This site then downloads the raw data for formatting and display.
Metric and imperial data can be displayed. Graphs and historical data available.
Includes Sun and Moon times and rain image live from BOM.

Check out Ararat Weather on Facebook, Twitter and Google +

Help support ongoing costs by checking out the ads





Follow @AraratWeather